FW2148 Weather Reports


time (UTC)temp
C
wind
direction
speed
KPH
gust
KPH
rain 1hr
cm
rain 24hr
cm
rain mn
cm
humidity
%
barometer
mb
20260510094555 14 63 0.0 0.0 0.00 0.00 0.00 82 978.4
20260510093043 14 63 0.0 1.6 0.00 0.00 0.00 82 978.2
20260510091542 14 55 0.0 0.0 0.00 0.00 0.00 83 978.2
20260510090048 14 119 0.0 4.8 0.00 0.00 0.00 84 978.2
20260510084602 13 13 0.0 0.0 0.00 0.00 0.00 86 978.6
20260510083038 13 62 0.0 0.0 0.00 0.00 0.00 86 978.2
20260510081547 14 59 0.0 0.0 0.00 0.00 0.00 82 978.1
20260510080033 14 37 0.0 1.6 0.00 0.00 0.00 81 977.6
20260510074534 14 37 0.0 0.0 0.00 0.00 0.00 82 977.7
20260510073032 15 117 0.0 0.0 0.00 0.00 0.00 83 977.7
20260510071536 15 117 0.0 0.0 0.00 0.00 0.00 82 977.5
20260510070036 15 117 0.0 0.0 0.00 0.00 0.00 81 977.5
20260510064528 15 318 0.0 1.6 0.00 0.00 0.00 82 977.7
20260510063026 15 318 0.0 1.6 0.00 0.00 0.00 82 977.9
20260510061524 15 318 0.0 1.6 0.00 0.00 0.00 81 977.9
20260510060021 15 331 0.0 1.6 0.00 0.00 0.00 80 977.9
20260510054518 16 134 0.0 4.8 0.00 0.00 0.00 79 977.9
20260510053013 16 306 0.0 0.0 0.00 0.00 0.00 77 977.8
20260510051513 17 306 0.0 0.0 0.00 0.00 0.00 73 977.7
20260510050010 17 306 0.0 0.0 0.00 0.00 0.00 71 977.6
20260510044514 17 306 0.0 0.0 0.00 0.00 0.00 70 977.5
20260510043008 17 302 0.0 0.0 0.00 0.00 0.00 71 977.5
20260510041506 17 283 0.0 0.0 0.00 0.00 0.00 71 977.3
20260510040004 17 162 0.0 0.0 0.00 0.00 0.00 70 977.1
20260510034504 18 162 0.0 0.0 0.00 0.00 0.00 70 977.0
20260510033002 18 162 0.0 0.0 0.00 0.00 0.00 68 976.7
20260510031502 18 162 0.0 0.0 0.00 0.00 0.00 67 976.8
20260510030104 19 162 0.0 0.0 0.00 0.00 0.00 67 976.6
20260510024558 19 162 0.0 0.0 0.00 0.00 0.00 67 976.3
20260510023058 20 162 0.0 0.0 0.00 0.00 0.00 65 976.0
20260510021557 21 162 0.0 0.0 0.00 0.00 0.00 61 975.7
20260510020056 22 162 0.0 3.2 0.00 0.00 0.00 58 975.4
20260510014557 23 162 0.0 1.6 0.00 0.00 0.00 50 975.1
20260510013055 23 162 0.0 4.8 0.00 0.00 0.00 50 974.9
20260510011600 24 121 1.6 4.8 0.00 0.00 0.00 49 974.8
20260510010059 24 238 1.6 6.4 0.00 0.00 0.00 46 974.7
20260510004553 25 239 3.2 6.4 0.00 0.00 0.00 45 974.5
20260510003052 26 224 3.2 8.0 0.00 0.00 0.00 42 974.4
20260510001551 26 238 3.2 6.4 0.00 0.00 0.00 38 974.3
20260510000104 27 250 0.0 4.8 0.00 0.00 0.00 36 974.3
20260509234558 27 275 0.0 9.7 0.00 0.00 0.00 37 974.4
20260509233051 27 283 3.2 8.0 0.00 0.00 0.00 37 974.4
20260509231549 27 217 3.2 12.9 0.00 0.00 0.00 36 974.4
20260509230049 28 240 1.6 11.3 0.00 0.00 0.00 36 974.3
20260509224548 27 228 4.8 11.3 0.00 0.00 0.00 37 974.3
20260509223054 28 221 4.8 9.7 0.00 0.00 0.00 36 974.3
20260509221548 28 271 3.2 17.7 0.00 0.00 0.00 38 974.3
20260509220045 27 152 3.2 14.5 0.00 0.00 0.00 38 974.3
20260509214544 27 237 4.8 16.1 0.00 0.00 0.00 37 974.4
20260509213043 27 100 0.0 11.3 0.00 0.00 0.00 39 974.4
20260509211642 26 130 4.8 9.7 0.00 0.00 0.00 40 974.5
20260509210049 27 208 3.2 12.9 0.00 0.00 0.00 39 974.5
20260509204549 27 167 9.7 19.3 0.00 0.00 0.00 37 974.6
20260509203040 27 159 6.4 17.7 0.00 0.00 0.00 38 974.6
20260509201540 27 228 9.7 14.5 0.00 0.00 0.00 37 974.9
20260509200052 28 261 6.4 14.5 0.00 0.00 0.00 35 975.1
20260509194538 27 288 3.2 16.1 0.00 0.00 0.00 37 975.2
20260509193034 27 144 6.4 16.1 0.00 0.00 0.00 38 975.2
20260509191533 27 188 9.7 17.7 0.00 0.00 0.00 36 975.4
20260509190034 27 252 6.4 16.1 0.00 0.00 0.00 37 975.4
20260509184543 27 162 3.2 16.1 0.00 0.00 0.00 36 975.4
20260509183032 27 178 8.0 17.7 0.00 0.00 0.00 34 975.5
20260509181529 26 212 3.2 12.9 0.00 0.00 0.00 38 975.6
20260509180027 27 277 8.0 14.5 0.00 0.00 0.00 35 975.6
20260509174528 26 238 3.2 12.9 0.00 0.00 0.00 40 975.7
20260509173020 26 292 3.2 12.9 0.00 0.00 0.00 46 975.9
20260509171519 26 248 1.6 11.3 0.00 0.00 0.00 46 976.0
20260509170016 25 309 3.2 12.9 0.00 0.00 0.00 52 976.1
20260509164511 23 226 1.6 12.9 0.00 0.00 0.00 57 976.2
20260509163013 23 218 1.6 11.3 0.00 0.00 0.00 60 976.2
20260509161505 22 217 3.2 9.7 0.00 0.00 0.00 64 976.2
20260509160004 22 244 6.4 12.9 0.00 0.00 0.00 65 976.2
20260509154507 22 360 1.6 11.3 0.00 0.00 0.00 67 976.2
20260509153100 21 261 4.8 12.9 0.00 0.00 0.00 67 976.1
20260509151603 20 313 1.6 8.0 0.00 0.00 0.00 70 976.1
20260509150056 20 349 3.2 12.9 0.00 0.00 0.00 72 976.1
20260509144605 19 251 3.2 6.4 0.00 0.00 0.00 75 976.2
20260509143111 18 231 1.6 6.4 0.00 0.00 0.00 76 976.2
20260509141545 18 238 3.2 8.0 0.00 0.00 0.00 79 976.1
20260509140045 17 302 1.6 6.4 0.00 0.00 0.00 80 976.0
20260509134601 16 289 0.0 6.4 0.00 0.00 0.00 83 976.0
20260509133144 15 286 1.6 6.4 0.00 0.00 0.00 85 976.0
20260509131540 15 242 3.2 8.0 0.00 0.00 0.00 86 975.8
20260509130052 14 248 1.6 4.8 0.00 0.00 0.00 89 975.6
20260509124538 13 223 3.2 8.0 0.00 0.00 0.00 90 975.6
20260509123045 13 242 3.2 9.7 0.00 0.00 0.00 91 975.6
20260509121544 12 238 0.0 3.2 0.00 0.00 0.00 94 975.4
20260509120034 11 255 0.0 1.6 0.00 0.00 0.00 92 975.2
20260509114537 11 255 0.0 0.0 0.00 0.00 0.00 93 975.2
20260509113037 11 255 0.0 0.0 0.00 0.00 0.00 91 974.9
20260509111529 12 255 0.0 0.0 0.00 0.00 0.00 91 974.6
20260509110032 12 255 0.0 0.0 0.00 0.00 0.00 89 974.5
20260509104537 12 255 0.0 0.0 0.00 0.00 0.00 88 974.5
20260509103022 13 255 0.0 0.0 0.00 0.00 0.00 87 974.4
20260509101527 13 265 0.0 4.8 0.00 0.00 0.00 87 974.5
20260509100019 13 274 0.0 1.6 0.00 0.00 0.00 86 974.5